When you browse on this site, cookies collect data to enhance your experience and personalize the content and advertising you see.
Visit our Privacy Policy to learn more. By continuing to use the site, you agree to this use of cookies and data.
  • In Hungary
  • List of Countries
  • For 7 days
  • Water Temperature
  • Satellite Maps
  • Weather Map
  • News
  • Weather Widgets
  • user-avatar
    Login

    Hourly Weather Hriply

    Today, 24 January, Thursday

    Time Temperature Precipitation Wind Pressure Humidity
    00:00 -13°C° 0 mm 3 mps 740 mmHg 94%
    01:00 -14°C° 0 mm 3 mps 740 mmHg 95%
    02:00 -14°C° 0 mm 3 mps 740 mmHg 95%
    03:00 -15°C° 0 mm 3 mps 739 mmHg 95%
    04:00 -15°C° 0 mm 3 mps 739 mmHg 96%
    05:00 -16°C° 0 mm 3 mps 739 mmHg 96%
    06:00 -16°C° 0 mm 3 mps 739 mmHg 96%
    07:00 -16°C° 0 mm 3 mps 738 mmHg 96%
    08:00 -16°C° 0 mm 3 mps 738 mmHg 95%
    09:00 -15°C° 0.1 mm 3 mps 739 mmHg 95%
    10:00 -15°C° 0.1 mm 3 mps 739 mmHg 95%
    11:00 -14°C° 0.1 mm 3 mps 739 mmHg 94%
    12:00 -14°C° 0.1 mm 3 mps 739 mmHg 94%
    13:00 -13°C° 0.1 mm 3 mps 739 mmHg 94%
    14:00 -10°C° 0.1 mm 2 mps 740 mmHg 94%
    15:00 -12°C° 0 mm 2 mps 740 mmHg 94%
    16:00 -12°C° 0 mm 2 mps 741 mmHg 94%
    17:00 -10°C° 0 mm 1 mps 742 mmHg 95%
    18:00 -12°C° 0 mm 1 mps 742 mmHg 95%
    19:00 -14°C° 0 mm 1 mps 743 mmHg 96%
    20:00 -15°C° 0 mm 1 mps 743 mmHg 97%
    21:00 -16°C° 0 mm 1 mps 743 mmHg 97%
    22:00 -17°C° 0 mm 1 mps 744 mmHg 96%
    23:00 -18°C° 0 mm 1 mps 745 mmHg 96%

    Tomorrow, 25 January, Friday

    Time Temperature Precipitation Wind Pressure Humidity
    00:00 -18°C° 0 mm 0 mps 745 mmHg 95%
    01:00 -19°C° 0 mm 0 mps 745 mmHg 94%
    02:00 -19°C° 0 mm 0 mps 746 mmHg 92%
    03:00 -19°C° 0 mm 0 mps 746 mmHg 92%
    04:00 -19°C° 0 mm 0 mps 746 mmHg 91%
    05:00 -19°C° 0 mm 0 mps 746 mmHg 90%
    06:00 -19°C° 0 mm 0 mps 747 mmHg 89%
    07:00 -19°C° 0 mm 0 mps 747 mmHg 88%
    08:00 -19°C° 0 mm 1 mps 747 mmHg 87%
    09:00 -17°C° 0 mm 1 mps 748 mmHg 86%
    10:00 -16°C° 0 mm 1 mps 748 mmHg 86%
    11:00 -14°C° 0 mm 1 mps 748 mmHg 86%
    12:00 -13°C° 0 mm 1 mps 748 mmHg 87%
    13:00 -13°C° 0 mm 1 mps 748 mmHg 88%
    14:00 -12°C° 0 mm 1 mps 748 mmHg 89%
    15:00 -13°C° 0 mm 1 mps 748 mmHg 89%
    16:00 -14°C° 0 mm 1 mps 748 mmHg 89%
    17:00 -15°C° 0 mm 1 mps 748 mmHg 88%
    18:00 -17°C° 0 mm 2 mps 747 mmHg 88%
    19:00 -17°C° 0 mm 2 mps 747 mmHg 88%
    20:00 -17°C° 0 mm 2 mps 747 mmHg 88%
    21:00 -17°C° 0 mm 2 mps 747 mmHg 87%
    22:00 -16°C° 0 mm 2 mps 746 mmHg 86%
    23:00 -16°C° 0 mm 2 mps 746 mmHg 86%

    Day after tomorrow, 26 January, Saturday

    Time Temperature Precipitation Wind Pressure Humidity
    00:00 -16°C° 0 mm 2 mps 746 mmHg 86%
    01:00 -17°C° 0 mm 3 mps 745 mmHg 86%
    02:00 -17°C° 0 mm 3 mps 745 mmHg 86%
    03:00 -17°C° 0 mm 3 mps 744 mmHg 86%
    04:00 -17°C° 0 mm 3 mps 743 mmHg 86%
    05:00 -17°C° 0 mm 3 mps 742 mmHg 85%
    06:00 -17°C° 0 mm 3 mps 741 mmHg 85%
    07:00 -18°C° 0 mm 4 mps 741 mmHg 85%
    08:00 -18°C° 0 mm 4 mps 740 mmHg 86%
    09:00 -18°C° 0.1 mm 4 mps 739 mmHg 88%
    10:00 -18°C° 0.1 mm 4 mps 738 mmHg 90%
    11:00 -17°C° 0.1 mm 4 mps 738 mmHg 92%
    12:00 -17°C° 0.4 mm 4 mps 737 mmHg 93%
    13:00 -17°C° 0.4 mm 4 mps 736 mmHg 93%
    14:00 -16°C° 0.4 mm 3 mps 735 mmHg 93%
    15:00 -16°C° 0.3 mm 3 mps 734 mmHg 93%
    16:00 -17°C° 0.3 mm 3 mps 734 mmHg 94%
    17:00 -16°C° 0.3 mm 2 mps 733 mmHg 94%
    18:00 -16°C° 0.3 mm 2 mps 733 mmHg 95%
    19:00 -15°C° 0.3 mm 2 mps 732 mmHg 95%
    20:00 -15°C° 0.3 mm 2 mps 732 mmHg 96%
    21:00 -13°C° 0.2 mm 1 mps 731 mmHg 96%
    22:00 -13°C° 0.2 mm 1 mps 731 mmHg 97%
    23:00 -13°C° 0.2 mm 1 mps 731 mmHg 97%

    27 January, Sunday

    Time Temperature Precipitation Wind Pressure Humidity
    00:00 -14°C° 0 mm 1 mps 730 mmHg 98%
    01:00 -15°C° 0 mm 0 mps 730 mmHg 98%
    02:00 -16°C° 0 mm 0 mps 730 mmHg 98%
    03:00 -16°C° 0 mm 0 mps 730 mmHg 98%
    04:00 -16°C° 0 mm 1 mps 729 mmHg 98%
    05:00 -17°C° 0 mm 1 mps 729 mmHg 98%
    06:00 -17°C° 0 mm 1 mps 729 mmHg 98%
    07:00 -17°C° 0 mm 1 mps 729 mmHg 98%
    08:00 -17°C° 0 mm 1 mps 730 mmHg 98%
    09:00 -16°C° 0 mm 1 mps 730 mmHg 97%
    10:00 -18°C° 0 mm 2 mps 730 mmHg 97%
    11:00 -17°C° 0 mm 2 mps 730 mmHg 96%
    12:00 -17°C° 0 mm 2 mps 730 mmHg 95%
    13:00 -16°C° 0 mm 2 mps 730 mmHg 94%
    14:00 -16°C° 0 mm 2 mps 730 mmHg 94%
    15:00 -17°C° 0 mm 2 mps 730 mmHg 95%
    16:00 -17°C° 0 mm 2 mps 731 mmHg 96%
    17:00 -18°C° 0 mm 2 mps 731 mmHg 97%
    18:00 -18°C° 0 mm 2 mps 731 mmHg 97%
    19:00 -19°C° 0 mm 2 mps 731 mmHg 97%
    20:00 -19°C° 0 mm 2 mps 732 mmHg 97%
    21:00 -20°C° 0 mm 2 mps 732 mmHg 98%
    22:00 -20°C° 0 mm 2 mps 732 mmHg 98%
    23:00 -21°C° 0 mm 2 mps 732 mmHg 98%

    28 January, Monday

    Time Temperature Precipitation Wind Pressure Humidity
    00:00 -21°C° 0 mm 2 mps 732 mmHg 98%
    01:00 -21°C° 0 mm 2 mps 733 mmHg 98%
    02:00 -23°C° 0 mm 2 mps 733 mmHg 99%
    03:00 -20°C° 0 mm 1 mps 733 mmHg 99%
    04:00 -20°C° 0 mm 1 mps 733 mmHg 99%
    05:00 -20°C° 0 mm 1 mps 734 mmHg 99%
    06:00 -20°C° 0 mm 1 mps 734 mmHg 99%
    07:00 -21°C° 0 mm 1 mps 734 mmHg 99%
    08:00 -21°C° 0 mm 0 mps 734 mmHg 99%
    09:00 -19°C° 0 mm 0 mps 735 mmHg 98%
    10:00 -17°C° 0 mm 1 mps 735 mmHg 96%
    11:00 -16°C° 0 mm 1 mps 735 mmHg 95%
    12:00 -15°C° 0 mm 1 mps 735 mmHg 95%
    13:00 -14°C° 0 mm 1 mps 735 mmHg 94%
    14:00 -15°C° 0 mm 2 mps 735 mmHg 94%
    15:00 -16°C° 0 mm 2 mps 735 mmHg 95%
    16:00 -16°C° 0 mm 2 mps 735 mmHg 95%
    17:00 -18°C° 0 mm 3 mps 734 mmHg 95%
    18:00 -17°C° 0.1 mm 3 mps 734 mmHg 94%
    19:00 -16°C° 0.1 mm 3 mps 734 mmHg 92%
    20:00 -17°C° 0.1 mm 4 mps 734 mmHg 91%
    21:00 -16°C° 0.4 mm 4 mps 733 mmHg 92%
    22:00 -15°C° 0.4 mm 4 mps 733 mmHg 93%
    23:00 -15°C° 0.4 mm 4 mps 733 mmHg 94%

    29 January, Tuesday

    Time Temperature Precipitation Wind Pressure Humidity
    00:00 -14°C° 0.1 mm 4 mps 733 mmHg 93%
    01:00 -14°C° 0.1 mm 4 mps 733 mmHg 93%
    02:00 -12°C° 0.1 mm 3 mps 732 mmHg 93%
    03:00 -12°C° 0 mm 4 mps 732 mmHg 93%
    04:00 -11°C° 0 mm 4 mps 732 mmHg 93%
    05:00 -11°C° 0 mm 4 mps 732 mmHg 93%
    06:00 -10°C° 0 mm 4 mps 732 mmHg 93%
    07:00 -9°C° 0 mm 4 mps 732 mmHg 93%
    08:00 -9°C° 0 mm 4 mps 732 mmHg 93%
    09:00 -7°C° 0 mm 4 mps 732 mmHg 92%
    10:00 -5°C° 0 mm 4 mps 732 mmHg 91%
    11:00 -3°C° 0 mm 4 mps 732 mmHg 90%
    12:00 -3°C° 0 mm 4 mps 732 mmHg 90%
    13:00 -2°C° 0 mm 4 mps 732 mmHg 90%
    14:00 -2°C° 0 mm 4 mps 733 mmHg 90%
    15:00 -1°C° 0.1 mm 3 mps 733 mmHg 91%
    16:00 -1°C° 0.1 mm 3 mps 733 mmHg 91%
    17:00 -1°C° 0.1 mm 3 mps 733 mmHg 92%
    18:00 -1°C° 0.1 mm 3 mps 733 mmHg 92%
    19:00 -1°C° 0.1 mm 3 mps 733 mmHg 92%
    20:00 -1°C° 0.1 mm 3 mps 733 mmHg 93%
    21:00 -1°C° 0.2 mm 3 mps 734 mmHg 93%
    22:00 -1°C° 0.2 mm 3 mps 734 mmHg 93%
    23:00 -1°C° 0.2 mm 3 mps 734 mmHg 93%
    Show more